Voltar ao catálogo

STARLINK-35140

AtivoComunicaçõesVLEO
NORAD 65501·PAYLOAD·🇺🇸 United States

Lançado Sep 5, 2025 de Cape Canaveral Space Force Station

Loading…

Próximas Passagens (próximas 24 horas)

TLE

AtualizadoSource: CelesTrak SupGP

Época: Sep 15, 2026, 03:03 UTC

1 65501C 25198K   26258.12756944  .00013703  00000+0  40498-3 0  2582
2 65501  53.1578 106.6256 0001202  84.9599  24.5776 15.34374417    14

Acompanhe STARLINK-35140 em tempo real com AllMySat

Download on the App Store